Terminal Aerodrome Forecast
Issued by NWS Wilmington, OH

Current Version | Previous Version | Graphics & Text | Print | Product List | Glossary On
Versions: 1 2 3 4 5 6 7 8 9 10 11 12 13 14 15 16 17 18 19 20 21 22
000
FTUS41 KILN 211000 AAB
TAFCVG
TAF AMD
KCVG 211011Z 2110/2212 02007KT P6SM OVC035
     FM211100 36007KT P6SM BKN015 OVC030
     FM211300 01008KT P6SM OVC020
     FM211500 35008KT P6SM BKN035
     FM212200 31010KT P6SM SCT040
     FM220500 28004KT P6SM FEW040=

USA.gov is the U.S. government's official web portal to all federal, state and local government web resources and services.